Antwerp, Belgium

4:15 PM CEST on April 25, 2018 (GMT +0200)
Deurne

Weather History for EBAW - January, 2013

Change the Weather History Date:

Sunday, January 27, 2013

  Actual Average Record
Temperature  
Mean Temperature 37 °F -  
Max Temperature 43 °F 44 °F 55 °F (2002)
Min Temperature 31 °F 34 °F 19 °F (1998)
Degree Days  
Heating Degree Days 28    
Moisture  
Dew Point 36 °F    
Average Humidity 83    
Maximum Humidity 93    
Minimum Humidity 49    
Precipitation  
Precipitation 0.16 in - - ()
Sea Level Pressure  
Sea Level Pressure 29.61 in    
Wind  
Wind Speed 12 mph ()    
Max Wind Speed 20 mph    
Max Gust Speed 31 mph    
Visibility 6.0 miles    
Events Rain    
Averages and records for this station are not official NWS values.
T = Trace of Precipitation, MM = Missing Value Source: Averaged Metar Reports

Daily Weather History Graph

Daily Weather History Graph

Search for Another Location

Airport or City:

Astronomy

Jan. 27, 2013 Rise Set
Actual Time 8:26 AM CET 5:23 PM CET
Civil Twilight 7:49 AM CET 6:00 PM CET
Nautical Twilight 7:09 AM CET 6:40 PM CET
Astronomical Twilight 6:30 AM CET 7:19 PM CET
Moon 6:13 PM CET (1/27) 8:02 AM CET (1/27)
Length of Visible Light 10h 10m
Length of Day
8h 57m
Full, 100% of the Moon is Illuminated
Jan 27
Full
Feb 3
Last Quarter
Feb 10
New
Feb 17
First Quarter
Feb 25
Full

Hourly Weather History & Observations

Time (CET) Temp. Windchill Dew Point Humidity Pressure Visibility Wind Dir Wind Speed Gust Speed Precip Events Conditions
12:20 AM 35.6 °F 27.5 °F 32.0 °F 87% 29.83 in - SSW 11.5 mph - N/A   Mist
12:50 AM 35.6 °F 27.5 °F 32.0 °F 87% 29.83 in 2.8 mi SSW 11.5 mph - N/A   Mostly Cloudy
1:00 AM 35 °F - 33 °F 89% 29.83 in 3 mi SSW 11.2 mph - -   Mist
1:20 AM 35.6 °F 28.0 °F 33.8 °F 93% 29.80 in 3.1 mi South 10.4 mph - N/A   Unknown
1:50 AM 37.4 °F 28.9 °F 33.8 °F 87% 29.77 in 3.7 mi South 13.8 mph - N/A   Partly Cloudy
2:20 AM 37.4 °F 29.3 °F 33.8 °F 87% 29.77 in 3.7 mi South 12.7 mph - N/A   Unknown
2:50 AM 37.4 °F 29.8 °F 33.8 °F 87% 29.74 in 4.3 mi South 11.5 mph - N/A   Unknown
3:20 AM 37.4 °F 29.8 °F 33.8 °F 87% 29.74 in 5.0 mi South 11.5 mph - N/A   Scattered Clouds
3:50 AM 39.2 °F 30.8 °F 33.8 °F 81% 29.71 in - South 15.0 mph - N/A   Clear
4:00 AM 39 °F - 34 °F 76% 29.71 in - South 13.4 mph - -   Overcast
4:20 AM 39.2 °F 31.6 °F 33.8 °F 81% 29.68 in - South 12.7 mph - N/A   Clear
4:50 AM 39.2 °F 32.0 °F 33.8 °F 81% 29.65 in 6.2 mi South 11.5 mph - N/A   Overcast
5:20 AM 41.0 °F 34.3 °F 32.0 °F 70% 29.62 in - South 11.5 mph - N/A   Clear
5:50 AM 41.0 °F 32.8 °F 32.0 °F 70% 29.59 in 6.2 mi South 16.1 mph 28.8 mph N/A   Light Drizzle
6:20 AM 41.0 °F 33.1 °F 30.2 °F 65% 29.56 in - South 15.0 mph - N/A   Clear
6:50 AM 42.8 °F 34.5 °F 28.4 °F 57% 29.56 in 6.2 mi South 18.4 mph 29.9 mph N/A Rain Light Rain
7:00 AM 42 °F - 29 °F 49% 29.57 in 16 mi South 17.9 mph - - Rain Light Rain
7:20 AM 42.8 °F 35.4 °F 28.4 °F 57% 29.56 in 6.2 mi South 15.0 mph - N/A Rain Light Rain
7:50 AM 41.0 °F 33.5 °F 32.0 °F 70% 29.56 in 6.2 mi SSW 13.8 mph - N/A Rain Light Rain
8:20 AM 41.0 °F 32.5 °F 32.0 °F 70% 29.53 in 6.2 mi SSW 17.3 mph - N/A Rain Light Rain
8:50 AM 41.0 °F 31.9 °F 33.8 °F 76% 29.53 in 6.2 mi SSW 19.6 mph - N/A Rain Light Rain
9:20 AM 41.0 °F 31.9 °F 35.6 °F 81% 29.50 in 6.2 mi SSW 19.6 mph 31.1 mph N/A Rain Light Rain
9:50 AM 39.2 °F 29.6 °F 35.6 °F 87% 29.50 in 3.1 mi SSW 19.6 mph - N/A Rain Light Rain
10:00 AM 40 °F - 36 °F 80% 29.53 in 3 mi SSW 20.1 mph - - Rain Light Rain
10:20 AM 39.2 °F 29.6 °F 37.4 °F 93% 29.50 in 3.1 mi SSW 19.6 mph - N/A Rain Rain
10:50 AM 39.2 °F 29.8 °F 37.4 °F 93% 29.50 in 4.3 mi SSW 18.4 mph - N/A Rain Light Rain
11:20 AM 39.2 °F 29.6 °F 37.4 °F 93% 29.50 in 6.2 mi SSW 19.6 mph - N/A Rain Light Rain
11:50 AM 41.0 °F 31.9 °F 37.4 °F 87% 29.50 in 6.2 mi SSW 19.6 mph - N/A Rain Light Rain
12:20 PM 39.2 °F 29.8 °F 37.4 °F 93% 29.50 in 6.2 mi SSW 18.4 mph - N/A Rain Light Rain
12:50 PM 41.0 °F 32.5 °F 37.4 °F 87% 29.50 in 6.2 mi SSW 17.3 mph - N/A Rain Light Rain
1:00 PM 40 °F - 37 °F 87% 29.53 in 9 mi SSW 17.9 mph - - Rain Light Rain
1:20 PM 41.0 °F 32.8 °F 37.4 °F 87% 29.50 in 6.2 mi SSW 16.1 mph - N/A   Mostly Cloudy
1:50 PM 41.0 °F 32.8 °F 39.2 °F 93% 29.50 in 6.2 mi SSW 16.1 mph - N/A   Mostly Cloudy
2:20 PM 42.8 °F 35.4 °F 39.2 °F 87% 29.50 in 6.2 mi SSW 15.0 mph - N/A   Mostly Cloudy
2:50 PM 42.8 °F 35.4 °F 39.2 °F 87% 29.53 in 6.2 mi SW 15.0 mph - N/A   Mostly Cloudy
3:20 PM 42.8 °F 35.1 °F 39.2 °F 87% 29.53 in 6.2 mi SW 16.1 mph - N/A   Scattered Clouds
3:50 PM 42.8 °F 36.2 °F 39.2 °F 87% 29.53 in 6.2 mi SW 12.7 mph - N/A   Partly Cloudy
4:00 PM 43 °F - 40 °F 84% 29.55 in 16 mi SW 13.4 mph - -   Partly Cloudy
4:20 PM 44.6 °F 38.8 °F 39.2 °F 81% 29.53 in 6.2 mi SW 11.5 mph - N/A   Partly Cloudy
4:50 PM 42.8 °F 36.6 °F 39.2 °F 87% 29.56 in - SW 11.5 mph - N/A   Clear
5:20 PM 42.8 °F 36.6 °F 39.2 °F 87% 29.56 in - SW 11.5 mph - N/A   Clear
5:50 PM 42.8 °F 37.0 °F 39.2 °F 87% 29.56 in - SW 10.4 mph - N/A   Clear
6:20 PM 41.0 °F 35.2 °F 39.2 °F 93% 29.59 in - SSW 9.2 mph - N/A   Clear
6:50 PM 41.0 °F 35.8 °F 39.2 °F 93% 29.59 in - SSW 8.1 mph - N/A   Clear
7:00 PM 41 °F - 38 °F 87% 29.60 in 7 mi SSW 8.9 mph - -   Clear
7:20 PM 41.0 °F 35.2 °F 37.4 °F 87% 29.59 in - SSW 9.2 mph - N/A   Clear
7:50 PM 41.0 °F 34.7 °F 37.4 °F 87% 29.62 in - SW 10.4 mph - N/A   Clear
8:20 PM 41.0 °F 35.2 °F 37.4 °F 87% 29.62 in - SW 9.2 mph - N/A   Clear
8:50 PM 41.0 °F 34.7 °F 37.4 °F 87% 29.62 in - SW 10.4 mph - N/A   Clear
9:20 PM 41.0 °F 35.8 °F 37.4 °F 87% 29.65 in - SW 8.1 mph - N/A   Clear
9:50 PM 41.0 °F 35.2 °F 35.6 °F 81% 29.65 in 5.6 mi SW 9.2 mph - N/A   Unknown
10:00 PM 40 °F - 36 °F 82% 29.67 in 6 mi SW 8.9 mph - -   Clear
10:20 PM 41.0 °F 35.8 °F 35.6 °F 81% 29.65 in 5.6 mi SW 8.1 mph - N/A   Unknown
10:50 PM 41.0 °F 35.2 °F 35.6 °F 81% 29.65 in 5.6 mi SW 9.2 mph - N/A   Unknown
11:20 PM 39.2 °F 33.0 °F 35.6 °F 87% 29.68 in 5.6 mi SW 9.2 mph - N/A   Unknown
11:50 PM 39.2 °F 33.0 °F 35.6 °F 87% 29.68 in 5.6 mi SW 9.2 mph - N/A   Unknown